Regional Weather Roundup
Issued by NWS Cleveland, OH

Home | Current Version | Previous Version | Text Only | Print | Product List | Glossary Off
Versions: 1 2 3 4 5 6 7 8 9 10 11 12 13 14 15 16 17 18 19 20 21 22 23 24 25 26 27 28 29 30 31 32 33 34 35 36 37 38 39 40 41 42 43 44 45 46 47 48 49 50

000
ASUS41 KCLE 230910
RWRCLE
OHIO REGIONAL WEATHER ROUNDUP
NATIONAL WEATHER SERVICE WILMINGTON, OH
500 AM EDT SUN APR 23 2017

NOTE: "FAIR" INDICATES FEW OR NO CLOUDS BELOW 12,000 FEET WITH NO
SIGNIFICANT WEATHER AND/OR OBSTRUCTIONS TO VISIBILITY.

OHZ001>008-015>018-024>027-034-035-043-044-231000-
   NORTHWEST OHIO

CITY           SKY/WX    TMP DP  RH WIND       PRES   REMARKS
DEFIANCE       FAIR      36  33  89 CALM      30.10F
FINDLAY        FAIR      39  31  72 CALM      30.09S
TOLEDO EXPRESS FAIR      36  34  92 CALM      30.10S
TOLEDO EXEC    FAIR      38  32  79 CALM      30.11S
LIMA           FAIR      36  31  82 NE3       30.09S
$$

OHZ009>014-019>023-028>033-038-089-231000-
   NORTHEAST OHIO

CITY           SKY/WX    TMP DP  RH WIND       PRES   REMARKS
CLE-HOPKINS    FAIR      37  32  82 S3        30.12S
CLE-LAKEFRONT  FAIR      43  35  73 CALM      30.09F
CUY CO. ARPT   NOT AVBL
LORAIN-ELYRIA  FAIR      36  31  82 CALM      30.10F
ASHTABULA      FAIR      33  32  96 CALM      30.11S
AKRON-CANTON   FAIR      38  32  79 NE7       30.09R
WOOSTER        FAIR      35  32  88 CALM      30.10S
MANSFIELD      FAIR      39  32  76 NE5       30.09S
YOUNGSTOWN     FAIR      38  34  85 NE6       30.09S
$$

OHZ042-051>053-060>062-070>072-077>081-231000-
  SOUTHWEST OHIO

CITY           SKY/WX    TMP DP  RH WIND       PRES   REMARKS
CINC-COVINGTON MOCLDY    45  35  68 NE16      30.03R
CINC-LUNKEN    FAIR      43  37  79 NE8       30.05F
HAMILTON       FAIR      42  37  82 NE8       30.06F
DAYTON         FAIR      36  32  85 NE8       30.08S
WRIGHT-PAT AFB FAIR      39  35  87 NE8       30.07S
DAYTON GENERAL FAIR      39  34  82 NE9       30.05S
WILMINGTON     FAIR      39  36  89 NE10      30.04F
$$

OHZ036-037-039>041-045>050-054>059-063>069-073>076-082>088-231000-
  CENTRAL AND SOUTHEAST OHIO

CITY           SKY/WX    TMP DP  RH WIND       PRES   REMARKS
COLUMBUS       FAIR      40  35  83 N3        30.07S
OSU AIRPORT    FAIR      35  33  92 N8        30.08S WCI  29
BOLTON FIELD   FAIR      36  34  91 N7        30.08S
RICKENBACK AFB FAIR      38  35  87 N7        30.07S
NEWARK         FAIR      38  33  82 NE3       30.08R
MARION         FAIR      36  31  82 NE6       30.09S
LANCASTER      FAIR      39  34  82 N3        30.07S
ZANESVILLE     FAIR      38  33  82 N3        30.07S
NEW PHILLY     FAIR      40  35  83 CALM      30.10R
$$



USA.gov is the U.S. government's official web portal to all federal, state and local government web resources and services.